To NAV CANADA Home Page Login to a new session Search on AWWS site Disclaimer Vers la page française équivalente Tips FAQ What's new on the site To the Forecasts and Observations / NOTAM section To "File a Flight Plan" website Publications and other links Update of the User's profile FIC Telephone Numbers My Weather Data Folder Route Weather Data Regional Weather Data Local Weather Data To the Forecasts and Observations / NOTAM section
Request Generated 04/24/2019 at 16:29:05 UTC . Weather information available at that time is displayed.

METAR/TAF

PINCHER CREEK/AB    (show WxCam)

METAR CZPC 241600Z AUTO 23015G20KT 9SM CLR 10/01 A2995 RMK SLP156 DENSITY ALT 4100FT=
METAR CZPC 241500Z AUTO 23011KT 180V250 9SM BKN090 BKN140 08/01 A2996 RMK SLP160=
METAR CZPC 241400Z AUTO 31003KT 9SM SCT065 BKN086 BKN110 04/M02 A2996 RMK LTNG DIST SW SLP161=

CZPC - No TAF is issued for this station

Your time UTC time
Weather data provided by Environment Canada and NAV CANADA